• In Hungary
  • List of Countries
  • For 7 days
  • Water Temperature
  • Satellite Maps
  • Weather Map
  • News
  • Weather Widgets
  • user-avatar
    Login

    Hourly Weather Kuhtovka

    Today, 19 August, Sunday

    Time Temperature Precipitation Wind Pressure Humidity
    00:00 +18°C° 0 mm 1 mps 751 mmHg 68%
    01:00 +18°C° 0 mm 1 mps 751 mmHg 70%
    02:00 +16°C° 0 mm 1 mps 751 mmHg 71%
    03:00 +16°C° 0 mm 1 mps 751 mmHg 76%
    04:00 +16°C° 0 mm 1 mps 751 mmHg 77%
    05:00 +16°C° 0 mm 1 mps 751 mmHg 78%
    06:00 +16°C° 0 mm 1 mps 751 mmHg 79%
    07:00 +18°C° 0 mm 1 mps 751 mmHg 74%
    08:00 +20°C° 0 mm 1 mps 751 mmHg 68%
    09:00 +21°C° 0 mm 2 mps 751 mmHg 62%
    10:00 +23°C° 0 mm 2 mps 751 mmHg 58%
    11:00 +24°C° 0 mm 2 mps 751 mmHg 54%
    12:00 +25°C° 0 mm 2 mps 751 mmHg 49%
    13:00 +26°C° 0 mm 2 mps 750 mmHg 48%
    14:00 +26°C° 0 mm 2 mps 750 mmHg 47%
    15:00 +27°C° 0 mm 2 mps 749 mmHg 44%
    16:00 +26°C° 0 mm 2 mps 749 mmHg 47%
    17:00 +26°C° 0 mm 2 mps 749 mmHg 50%
    18:00 +26°C° 0 mm 2 mps 749 mmHg 53%
    19:00 +24°C° 0 mm 2 mps 749 mmHg 56%
    20:00 +21°C° 0 mm 2 mps 749 mmHg 60%
    21:00 +19°C° 0 mm 2 mps 749 mmHg 63%
    22:00 +19°C° 0 mm 2 mps 748 mmHg 64%
    23:00 +18°C° 0 mm 2 mps 748 mmHg 65%

    Tomorrow, 20 August, Monday

    Time Temperature Precipitation Wind Pressure Humidity
    00:00 +18°C° 0 mm 2 mps 748 mmHg 66%
    01:00 +18°C° 0 mm 2 mps 748 mmHg 67%
    02:00 +17°C° 0 mm 2 mps 748 mmHg 69%
    03:00 +17°C° 0 mm 2 mps 748 mmHg 70%
    04:00 +17°C° 0 mm 2 mps 748 mmHg 71%
    05:00 +16°C° 0 mm 2 mps 748 mmHg 73%
    06:00 +16°C° 0 mm 2 mps 748 mmHg 74%
    07:00 +18°C° 0 mm 3 mps 748 mmHg 70%
    08:00 +20°C° 0 mm 3 mps 748 mmHg 66%
    09:00 +21°C° 0 mm 3 mps 748 mmHg 62%
    10:00 +24°C° 0 mm 3 mps 748 mmHg 58%
    11:00 +25°C° 0 mm 4 mps 748 mmHg 54%
    12:00 +26°C° 0 mm 4 mps 748 mmHg 50%
    13:00 +27°C° 0 mm 4 mps 747 mmHg 50%
    14:00 +27°C° 0 mm 4 mps 747 mmHg 49%
    15:00 +27°C° 0 mm 4 mps 746 mmHg 48%
    16:00 +27°C° 0 mm 3 mps 746 mmHg 52%
    17:00 +27°C° 0 mm 3 mps 746 mmHg 56%
    18:00 +26°C° 0 mm 3 mps 745 mmHg 60%
    19:00 +25°C° 0 mm 3 mps 745 mmHg 64%
    20:00 +22°C° 0 mm 3 mps 745 mmHg 67%
    21:00 +21°C° 0 mm 3 mps 745 mmHg 71%
    22:00 +20°C° 0 mm 3 mps 745 mmHg 72%
    23:00 +20°C° 0 mm 3 mps 745 mmHg 74%

    Day after tomorrow, 21 August, Tuesday

    Time Temperature Precipitation Wind Pressure Humidity
    00:00 +19°C° 0 mm 3 mps 745 mmHg 75%
    01:00 +19°C° 0 mm 3 mps 745 mmHg 75%
    02:00 +19°C° 0 mm 3 mps 744 mmHg 75%
    03:00 +18°C° 0 mm 3 mps 744 mmHg 76%
    04:00 +18°C° 0 mm 4 mps 744 mmHg 76%
    05:00 +18°C° 0 mm 4 mps 744 mmHg 77%
    06:00 +18°C° 0 mm 4 mps 744 mmHg 78%
    07:00 +19°C° 0 mm 4 mps 743 mmHg 75%
    08:00 +21°C° 0 mm 5 mps 743 mmHg 71%
    09:00 +22°C° 0 mm 6 mps 743 mmHg 68%
    10:00 +24°C° 0 mm 6 mps 743 mmHg 63%
    11:00 +26°C° 0 mm 7 mps 742 mmHg 58%
    12:00 +27°C° 0 mm 8 mps 742 mmHg 53%
    13:00 +27°C° 0.3 mm 8 mps 742 mmHg 54%
    14:00 +28°C° 0.3 mm 8 mps 741 mmHg 54%
    15:00 +28°C° 0.3 mm 8 mps 741 mmHg 54%
    16:00 +26°C° 1 mm 8 mps 741 mmHg 60%
    17:00 +24°C° 1 mm 7 mps 741 mmHg 67%
    18:00 +23°C° 1 mm 6 mps 740 mmHg 73%
    19:00 +22°C° 0.5 mm 6 mps 741 mmHg 78%
    20:00 +20°C° 0.5 mm 5 mps 741 mmHg 82%
    21:00 +19°C° 0.5 mm 4 mps 741 mmHg 87%
    22:00 +18°C° 0 mm 4 mps 742 mmHg 87%
    23:00 +17°C° 0 mm 4 mps 742 mmHg 87%

    22 August, Wednesday

    Time Temperature Precipitation Wind Pressure Humidity
    00:00 +16°C° 0 mm 3 mps 742 mmHg 87%
    01:00 +16°C° 0 mm 3 mps 743 mmHg 87%
    02:00 +14°C° 0 mm 3 mps 743 mmHg 88%
    03:00 +13°C° 0 mm 3 mps 744 mmHg 88%
    04:00 +13°C° 0 mm 3 mps 744 mmHg 88%
    05:00 +12°C° 0 mm 3 mps 744 mmHg 88%
    06:00 +11°C° 0 mm 4 mps 745 mmHg 88%
    07:00 +12°C° 0 mm 4 mps 745 mmHg 84%
    08:00 +13°C° 0 mm 5 mps 746 mmHg 80%
    09:00 +14°C° 0 mm 5 mps 746 mmHg 75%
    10:00 +16°C° 0 mm 5 mps 746 mmHg 68%
    11:00 +17°C° 0 mm 6 mps 746 mmHg 61%
    12:00 +19°C° 0 mm 6 mps 747 mmHg 54%
    13:00 +19°C° 0 mm 6 mps 747 mmHg 53%
    14:00 +20°C° 0 mm 6 mps 747 mmHg 51%
    15:00 +20°C° 0 mm 6 mps 747 mmHg 49%
    16:00 +19°C° 0 mm 5 mps 747 mmHg 52%
    17:00 +19°C° 0 mm 5 mps 748 mmHg 56%
    18:00 +18°C° 0 mm 4 mps 748 mmHg 59%
    19:00 +17°C° 0 mm 4 mps 749 mmHg 63%
    20:00 +14°C° 0 mm 3 mps 749 mmHg 66%
    21:00 +13°C° 0 mm 3 mps 750 mmHg 70%
    22:00 +12°C° 0 mm 3 mps 750 mmHg 70%
    23:00 +12°C° 0 mm 2 mps 750 mmHg 71%

    23 August, Thursday

    Time Temperature Precipitation Wind Pressure Humidity
    00:00 +12°C° 0 mm 2 mps 751 mmHg 71%
    01:00 +10°C° 0 mm 2 mps 751 mmHg 72%
    02:00 +10°C° 0 mm 2 mps 751 mmHg 72%
    03:00 +10°C° 0 mm 2 mps 751 mmHg 72%
    04:00 +9°C° 0 mm 2 mps 752 mmHg 73%
    05:00 +9°C° 0 mm 2 mps 752 mmHg 74%
    06:00 +10°C° 0 mm 1 mps 752 mmHg 75%
    07:00 +12°C° 0 mm 1 mps 752 mmHg 69%
    08:00 +14°C° 0 mm 1 mps 753 mmHg 64%
    09:00 +15°C° 0 mm 1 mps 753 mmHg 58%
    10:00 +18°C° 0 mm 1 mps 753 mmHg 54%
    11:00 +19°C° 0 mm 1 mps 753 mmHg 49%
    12:00 +20°C° 0 mm 1 mps 753 mmHg 45%
    13:00 +21°C° 0 mm 1 mps 753 mmHg 43%
    14:00 +21°C° 0 mm 1 mps 752 mmHg 42%
    15:00 +21°C° 0 mm 1 mps 752 mmHg 41%
    16:00 +21°C° 0 mm 1 mps 752 mmHg 43%
    17:00 +21°C° 0 mm 1 mps 752 mmHg 45%
    18:00 +19°C° 0 mm 0 mps 752 mmHg 48%
    19:00 +17°C° 0 mm 0 mps 752 mmHg 51%
    20:00 +16°C° 0 mm 0 mps 752 mmHg 54%
    21:00 +14°C° 0 mm 0 mps 752 mmHg 57%
    22:00 +15°C° 0 mm 1 mps 752 mmHg 58%
    23:00 +14°C° 0 mm 1 mps 752 mmHg 59%

    24 August, Friday

    Time Temperature Precipitation Wind Pressure Humidity
    00:00 +14°C° 0 mm 1 mps 752 mmHg 60%
    01:00 +13°C° 0 mm 1 mps 752 mmHg 61%
    02:00 +13°C° 0 mm 1 mps 752 mmHg 62%
    03:00 +13°C° 0 mm 1 mps 752 mmHg 63%
    04:00 +12°C° 0 mm 1 mps 752 mmHg 64%
    05:00 +12°C° 0 mm 1 mps 752 mmHg 66%
    06:00 +12°C° 0 mm 1 mps 752 mmHg 67%
    07:00 +14°C° 0 mm 1 mps 752 mmHg 63%
    08:00 +16°C° 0 mm 2 mps 752 mmHg 59%
    09:00 +18°C° 0 mm 2 mps 752 mmHg 54%
    10:00 +19°C° 0 mm 2 mps 752 mmHg 51%
    11:00 +20°C° 0 mm 2 mps 752 mmHg 47%
    12:00 +21°C° 0 mm 2 mps 752 mmHg 43%
    13:00 +23°C° 0 mm 2 mps 752 mmHg 42%
    14:00 +23°C° 0 mm 2 mps 751 mmHg 41%
    15:00 +24°C° 0 mm 2 mps 751 mmHg 40%
    16:00 +23°C° 0 mm 2 mps 751 mmHg 44%
    17:00 +23°C° 0 mm 2 mps 751 mmHg 47%
    18:00 +23°C° 0 mm 1 mps 750 mmHg 50%
    19:00 +21°C° 0 mm 1 mps 750 mmHg 53%
    20:00 +19°C° 0 mm 1 mps 750 mmHg 55%
    21:00 +17°C° 0 mm 2 mps 750 mmHg 57%
    22:00 +16°C° 0 mm 2 mps 750 mmHg 58%
    23:00 +16°C° 0 mm 2 mps 750 mmHg 59%
    Show more